{"data":{"norad_id":68806,"intl_designator":"2026-089E","name":"STARLINK-37370","alt_names":[],"object_type":"PAYLOAD","status":"ACTIVE","operator":null,"country":"US","launch_date":"2026-04-23","launch_site_code":"AFWTR","launch_vehicle":null,"mission":null,"orbit_class":"UNKNOWN","rcs_meters":null,"size_class":null,"mass_kg":null,"dimensions":null,"purposes":["comms"],"wikipedia_slug":null,"has_3d_model":false,"image_url":null,"decayed_at":null,"tle_current":{"epoch":"2026-05-25T02:51:49.146048Z","epoch_age_seconds":64512,"freshness":"FRESH","line1":"1 68806U 26089E   26145.11931882  .00181833  00000+0  11946-2 0  9990","line2":"2 68806  97.2845 351.7552 0002030  57.2803 302.8658 15.75181799  5069","mean_motion":15.75181799,"eccentricity":0.000203,"inclination_deg":97.2845,"raan_deg":351.7552,"arg_perigee_deg":57.2803,"mean_anomaly_deg":302.8658,"bstar":0.0011946,"rev_number":506,"period_min":91.418019235251,"perigee_km":342.74928406083,"apogee_km":345.47851792663,"semimajor_km":6722.2509009937,"source":"CELESTRAK","updated_at":"2026-05-25T13:38:22.040623Z"}}}